[[{"header":{"parameterUnit":"m.s-1","parameterCategory":1,"la1":30.2991,"la2":30.254,"lo1":-89.0895,"lo2":-89.0444,"dy":0.0017,"dx":0.0017,"nx":28,"ny":28,"refTime":"2025-04-01T03:00:00:Z","depth":0,"parameterNumber":2,"parameterNumberName":"U-component_of_WINDS"},"data":[0,0,0,0,0,0,0,0,0,0,0,0,0,0,0,0,0,0,0,0,0,0,0,0,0,0,0,0,0,0,0,0,0,0,0,0,0,0,0,0,0,0,0,0,0,0,0,0,0,0,0,0,0,0,0,0,0,0,-4.3258,-4.3258,0,-4.3267,-4.3268,-4.3268,-4.3135,-4.3132,-4.3128,-4.3125,-4.3137,-4.3141,-4.3145,0,0,0,0,0,0,0,0,0,0,0,0,0,-4.3129,-4.3132,-4.3258,-4.3258,-4.3258,-4.3267,-4.3268,-4.3268,-4.3136,-4.3132,-4.3127,-4.3123,-4.3136,-4.3141,-4.3145,0,0,0,0,0,0,0,0,0,0,0,0,0,-4.3167,-4.3133,-4.3258,-4.3194,-4.3188,-4.3267,-4.3268,-4.3268,-4.3137,-4.3132,-4.3126,-4.3121,-4.3135,-4.314,-4.3146,-4.3288,0,0,-4.3163,-4.3165,0,0,0,0,0,0,0,0,-4.3165,-4.3172,-4.3203,-4.3198,-4.3192,-4.3195,-4.3226,-4.3275,-4.3138,-4.3157,-4.3125,-4.3119,-4.3161,-4.3164,-4.3178,-4.3289,-4.3289,-4.3163,-4.3166,-4.3169,-4.317,0,0,0,0,0,0,0,-4.3162,-4.317,-4.3262,-4.3204,-4.3197,-4.3165,-4.3165,-4.3235,-4.3189,-4.3155,-4.3145,-4.3148,-4.3157,-4.3173,-4.3177,-4.3289,-4.3163,-4.3168,-4.3171,-4.3173,-4.3519,-4.3525,0,0,0,0,0,0,-4.3168,-4.3169,-4.3261,-4.3262,-4.3165,-4.3172,-4.3171,-4.3199,-4.3188,-4.3181,-4.3152,-4.3142,-4.3166,-4.3171,-4.3177,-4.3344,-4.3169,-4.3174,-4.3177,-4.3513,-4.352,-4.3527,0,0,0,0,0,0,-4.3166,-4.3178,-4.3261,-4.3213,-4.3221,-4.318,-4.3213,-4.3202,-4.3218,-4.3186,-4.3178,-4.3177,-4.3162,-4.3169,-4.3262,-4.3343,-4.3176,-4.3182,-4.3506,-4.3515,-4.3524,-4.368,0,0,0,0,0,0,-4.3163,-4.3177,-4.3231,-4.3215,-4.3224,-4.3345,-4.3218,-4.3206,-4.3228,-4.3214,-4.3207,-4.3201,-4.3158,-4.3254,-4.3267,-4.3348,-4.3186,-4.3499,-4.351,-4.3521,-4.3667,-4.3693,-4.3715,0,0,0,0,0,-4.3158,-4.3274,-4.3234,-4.3246,-4.329,-4.335,-4.3355,-4.3303,-4.3235,-4.3288,-4.3268,-4.3201,-4.3332,-4.3265,-4.3278,-4.3362,-4.3494,-4.3507,-4.352,-4.3657,-4.3688,-4.3714,0,0,0,0,0,0,-4.3301,-4.3271,-4.3226,-4.334,-4.3349,-4.3328,-4.3393,-4.3338,-4.3367,-4.3353,-4.3288,-4.3287,-4.3391,-4.3385,-4.3311,-4.35,-4.3401,-4.3417,-4.35,-4.3529,-4.3553,-4.3553,-4.319,0,0,0,0,0,-4.3346,-4.3397,-4.3368,-4.3471,-4.3478,-4.3436,-4.346,-4.3419,-4.3425,-4.3429,-4.3415,-4.3425,-4.3468,-4.3498,-4.3536,-4.3665,-4.3663,-4.3729,-4.3753,-4.3773,-4.3789,-4.3858,-4.3888,-4.357,-4.357,-4.357,0,0,-4.3439,-4.3429,-4.3465,-4.35,-4.3502,-4.3557,-4.3439,-4.3502,-4.3543,-4.3438,-4.3525,-4.3516,-4.3522,-4.3634,-4.3683,-4.3633,-4.3876,-4.379,-4.3805,-4.381,-4.3875,-4.3905,-4.3932,-4.3579,-4.3577,-4.3576,0,0,-4.3637,-4.3634,-4.372,-4.3725,-4.3728,-4.3699,-4.372,-4.3708,-4.3698,-4.3783,-4.3706,-4.3754,-4.3829,-4.3838,-4.3852,-4.4054,-4.3994,-4.4068,-4.4193,-4.4262,-4.4287,-4.4309,-4.4383,-4.441,-4.4083,-4.4084,-4.4084,0,-4.3753,-4.3832,-4.3772,-4.3841,-4.3859,-4.3766,-4.3854,-4.3861,-4.3878,-4.3894,-4.3836,-4.393,-4.3928,-4.4041,-4.4091,-4.4105,-4.4128,-4.4069,-4.4288,-4.4309,-4.4329,-4.4399,-4.4427,-4.4093,-4.4092,-4.4091,-4.409,0,-4.3975,-4.4031,-4.4101,-4.4119,-4.4144,-4.4223,-4.4176,-4.421,-4.4167,-4.4145,-4.4234,-4.4228,-4.4264,-4.4287,-4.4246,-4.4395,-4.4364,-4.4299,-4.4198,-4.4369,-4.4434,-4.446,-4.4106,-4.4103,-4.41,-4.4098,0,0,-4.4264,-4.4248,-4.4275,-4.4283,-4.428,-4.4323,-4.4397,-4.4431,-4.4463,-4.4477,-4.4539,-4.4605,-4.4545,-4.4561,-4.452,-4.458,-4.4743,-4.4507,-4.4506,-4.4553,-4.491,-4.4961,-4.4993,-4.4702,-4.4707,-4.4711,-4.491,0,-4.4458,-4.4584,-4.4533,-4.4663,-4.4716,-4.4628,-4.4693,-4.4699,-4.468,-4.4723,-4.4701,-4.475,-4.4666,-4.4675,-4.4731,-4.4712,-4.4814,-4.4696,-4.4762,-4.4765,-4.4765,-4.5026,-4.508,-4.5268,-4.4935,-4.4939,-4.4942,0,-4.4702,-4.4726,-4.4862,-4.4852,-4.4871,-4.4931,-4.4959,-4.4999,-4.5005,-4.4987,-4.5006,-4.4952,-4.5025,-4.4924,-4.5026,-4.4947,-4.497,-4.4965,-4.4971,-4.4977,-4.4865,-4.5041,-4.5326,-4.5356,-4.4981,-4.4978,-4.4975,0,-4.4902,-4.4969,-4.5059,-4.5068,-4.5057,-4.5101,-4.5099,-4.5099,-4.5123,-4.5148,-4.5163,-4.5196,-4.5215,-4.5243,-4.52,-4.513,-4.5309,-4.5203,-4.5297,-4.5299,-4.5341,-4.5339,-4.5636,-4.5353,-4.5352,-4.5352,-4.5351,0,-4.5126,-4.5213,-4.5149,-4.5205,-4.53,-4.5241,-4.5337,-4.5325,-4.5326,-4.5379,-4.5305,-4.5357,-4.5295,-4.5342,-4.5308,-4.5399,-4.5407,-4.5396,-4.5387,-4.5404,-4.5406,-4.542,-4.5407,-4.5359,-4.5358,-4.5356,-4.5355,0,-4.5366,-4.5326,-4.5419,-4.5401,-4.5399,-4.547,-4.5455,-4.5507,-4.5482,-4.5551,-4.5563,-4.5526,-4.5576,-4.5535,-4.5585,-4.5562,-4.5683,-4.5653,-4.5681,-4.5674,-4.5771,-4.5763,-4.6089,-4.613,-4.5819,-4.5822,-4.5825,0,-4.5512,-4.5577,-4.5566,-4.5596,-4.5598,-4.5647,-4.5671,-4.5615,-4.5644,-4.5656,-4.5707,-4.5751,-4.5783,-4.5868,-4.5846,-4.5884,-4.5857,-4.5968,-4.5862,-4.5878,-4.5861,-4.5859,-4.5866,-4.5991,-4.5994,-4.5997,-4.6,0,-4.5777,-4.5754,-4.5791,-4.5823,-4.5854,-4.5876,-4.5892,-4.5921,-4.5864,-4.59,-4.595,-4.5975,-4.6026,-4.6071,-4.6102,-4.61,-4.6042,-4.6033,-4.6057,-4.6077,-4.6091,-4.6087,-4.5742,-4.6026,-4.6024,-4.6022,-4.602,-4.6019,-4.5976,-4.603,-4.6031,-4.6076,-4.6082,-4.6099,-4.6147,-4.6128,-4.6169,-4.6205,-4.6169,-4.6231,-4.6236,-4.6271,-4.6277,-4.6325,-4.6279,-4.6314,-4.6323,-4.6333,-4.6348,-4.6082,-4.633,-4.6329,-4.6329,-4.6328,-4.6327,0,-4.6238,-4.6234,-4.6276,-4.6301,-4.6336,-4.6276,-4.6291,-4.6326,-4.638,-4.6389,-4.6423,-4.6482,-4.6526,-4.6507,-4.6546,-4.6588,-4.6563,-4.6601,-4.6598,-4.6599,-4.6386,-4.6362,-4.6621,-4.6621,-4.6621,-4.6621,-4.6621,-4.662,-4.6379,-4.6468,-4.6446,-4.6538,-4.6533,-4.6592,-4.6607,-4.6623,-4.663,-4.6698,-4.6734,-4.6721,-4.672,-4.6758,-4.6796,-4.6789,-4.6808,-4.6857,-4.6841,-4.6643,-4.6614,-4.6586,-4.6564,-4.6861,-4.6861,-4.705,-4.7052,-4.7053]},{"header":{"parameterUnit":"m.s-1","parameterCategory":1,"la1":30.2991,"la2":30.254,"lo1":-89.0895,"lo2":-89.0444,"dy":0.0017,"dx":0.0017,"nx":28,"ny":28,"refTime":"2025-04-01T03:00:00:Z","depth":0,"parameterNumber":3,"parameterNumberName":"V-component_of_WINDS"},"data":[0,0,0,0,0,0,0,0,0,0,0,0,0,0,0,0,0,0,0,0,0,0,0,0,0,0,0,0,0,0,0,0,0,0,0,0,0,0,0,0,0,0,0,0,0,0,0,0,0,0,0,0,0,0,0,0,0,0,-1.3319,-1.3319,0,-1.3375,-1.3375,-1.3376,-1.3396,-1.3395,-1.3395,-1.3395,-1.3451,-1.3452,-1.3454,0,0,0,0,0,0,0,0,0,0,0,0,0,-1.3226,-1.3227,-1.3319,-1.3319,-1.332,-1.3375,-1.3375,-1.3376,-1.3396,-1.3395,-1.3395,-1.3395,-1.345,-1.3452,-1.3454,0,0,0,0,0,0,0,0,0,0,0,0,0,-1.3272,-1.3228,-1.3318,-1.3336,-1.3339,-1.3374,-1.3375,-1.3376,-1.3396,-1.3395,-1.3395,-1.3395,-1.3449,-1.3452,-1.3454,-1.3476,0,0,-1.3462,-1.3463,0,0,0,0,0,0,0,0,-1.3269,-1.3275,-1.3333,-1.3335,-1.3338,-1.3378,-1.3363,-1.341,-1.3396,-1.3374,-1.3395,-1.3395,-1.3427,-1.3431,-1.3442,-1.3479,-1.3481,-1.3462,-1.3464,-1.3465,-1.3466,0,0,0,0,0,0,0,-1.3266,-1.3273,-1.3341,-1.3334,-1.3337,-1.3341,-1.3347,-1.3372,-1.3401,-1.3376,-1.3377,-1.3384,-1.3428,-1.344,-1.3443,-1.3482,-1.3462,-1.3464,-1.3466,-1.3467,-1.3537,-1.3537,0,0,0,0,0,0,-1.326,-1.327,-1.3339,-1.3342,-1.3302,-1.3343,-1.335,-1.3365,-1.3401,-1.3406,-1.3384,-1.3385,-1.3435,-1.3441,-1.3446,-1.3473,-1.3465,-1.3467,-1.3469,-1.3537,-1.3537,-1.3537,0,0,0,0,0,0,-1.3258,-1.3266,-1.3337,-1.3307,-1.3316,-1.3344,-1.3362,-1.3367,-1.3378,-1.3407,-1.3412,-1.3391,-1.3435,-1.3442,-1.3468,-1.3475,-1.3468,-1.3471,-1.3536,-1.3537,-1.3537,-1.3527,0,0,0,0,0,0,-1.3255,-1.3265,-1.3275,-1.3307,-1.3318,-1.3359,-1.3362,-1.3368,-1.3383,-1.3384,-1.3415,-1.342,-1.3436,-1.3464,-1.347,-1.3478,-1.3473,-1.3536,-1.3536,-1.3537,-1.3527,-1.3527,-1.3527,0,0,0,0,0,-1.3252,-1.327,-1.3275,-1.3283,-1.333,-1.336,-1.3366,-1.3384,-1.3383,-1.3392,-1.3411,-1.3419,-1.3473,-1.3467,-1.3474,-1.3482,-1.3535,-1.3536,-1.3537,-1.3527,-1.3527,-1.3527,0,0,0,0,0,0,-1.3237,-1.3274,-1.3281,-1.331,-1.3331,-1.3363,-1.3375,-1.3384,-1.3406,-1.3406,-1.3427,-1.3434,-1.3458,-1.3473,-1.3465,-1.3504,-1.3504,-1.3507,-1.3494,-1.3495,-1.3495,-1.3491,-1.3475,0,0,0,0,0,-1.3238,-1.3259,-1.329,-1.3312,-1.3323,-1.3347,-1.336,-1.3372,-1.3396,-1.3405,-1.3425,-1.3446,-1.3468,-1.3482,-1.3504,-1.3529,-1.3535,-1.3538,-1.3538,-1.3538,-1.354,-1.3553,-1.3554,-1.354,-1.354,-1.354,0,0,-1.3238,-1.3261,-1.3273,-1.331,-1.3328,-1.3349,-1.3355,-1.3377,-1.3392,-1.3408,-1.3434,-1.3449,-1.3474,-1.35,-1.3512,-1.3513,-1.3545,-1.3539,-1.3539,-1.3541,-1.3554,-1.3555,-1.3556,-1.3541,-1.3541,-1.354,0,0,-1.325,-1.3269,-1.329,-1.3308,-1.3335,-1.3351,-1.3355,-1.3385,-1.3396,-1.3423,-1.3434,-1.3452,-1.349,-1.3507,-1.352,-1.3536,-1.3544,-1.3542,-1.3544,-1.3556,-1.3557,-1.3559,-1.3564,-1.3565,-1.3544,-1.3544,-1.3544,0,-1.3247,-1.328,-1.3299,-1.332,-1.3335,-1.335,-1.337,-1.3386,-1.3419,-1.3429,-1.3429,-1.3475,-1.3493,-1.3522,-1.3526,-1.3537,-1.3542,-1.354,-1.3556,-1.3557,-1.3558,-1.3564,-1.3566,-1.3544,-1.3544,-1.3544,-1.3544,0,-1.3275,-1.3297,-1.331,-1.3341,-1.3358,-1.3378,-1.3399,-1.3413,-1.3423,-1.3438,-1.3464,-1.3485,-1.3511,-1.3519,-1.3529,-1.3549,-1.3548,-1.3552,-1.3553,-1.3559,-1.3564,-1.3566,-1.3543,-1.3543,-1.3543,-1.3543,0,0,-1.3281,-1.3321,-1.3325,-1.3339,-1.337,-1.3387,-1.3407,-1.3433,-1.3444,-1.3465,-1.3482,-1.3512,-1.3515,-1.3531,-1.3542,-1.3553,-1.3563,-1.3556,-1.3556,-1.3556,-1.3586,-1.3583,-1.3585,-1.3568,-1.3569,-1.3569,-1.3584,0,-1.3296,-1.3334,-1.3351,-1.3381,-1.3401,-1.3414,-1.3432,-1.3452,-1.3466,-1.3484,-1.3499,-1.352,-1.3523,-1.3532,-1.3543,-1.356,-1.357,-1.3559,-1.3584,-1.3585,-1.3578,-1.3588,-1.3586,-1.3598,-1.3586,-1.3586,-1.3586,0,-1.332,-1.3342,-1.3374,-1.3401,-1.341,-1.3425,-1.3449,-1.3467,-1.3489,-1.3498,-1.3514,-1.3525,-1.3545,-1.3544,-1.3571,-1.3564,-1.3574,-1.3584,-1.3585,-1.3588,-1.3586,-1.3592,-1.3603,-1.3605,-1.359,-1.359,-1.3589,0,-1.3321,-1.3358,-1.3382,-1.3393,-1.3425,-1.3435,-1.3449,-1.3471,-1.3484,-1.3504,-1.3513,-1.3535,-1.3548,-1.3564,-1.358,-1.3577,-1.3606,-1.3606,-1.3613,-1.3613,-1.362,-1.3619,-1.3633,-1.3626,-1.3626,-1.3626,-1.3626,0,-1.3337,-1.3356,-1.3382,-1.3397,-1.3418,-1.3436,-1.3456,-1.347,-1.3489,-1.3506,-1.3518,-1.3533,-1.3553,-1.357,-1.3583,-1.3603,-1.3609,-1.3616,-1.3619,-1.3616,-1.3615,-1.3623,-1.3623,-1.3626,-1.3626,-1.3626,-1.3626,0,-1.3342,-1.3361,-1.3387,-1.3415,-1.3422,-1.3436,-1.3459,-1.3473,-1.3487,-1.3508,-1.3514,-1.3535,-1.3556,-1.3573,-1.3601,-1.3609,-1.363,-1.3634,-1.3623,-1.3625,-1.3631,-1.363,-1.3651,-1.3655,-1.3645,-1.3646,-1.3646,0,-1.3352,-1.3367,-1.3395,-1.3408,-1.3421,-1.3441,-1.3454,-1.3472,-1.3485,-1.351,-1.3521,-1.3543,-1.3561,-1.3594,-1.3611,-1.3632,-1.3636,-1.3642,-1.3639,-1.3634,-1.3636,-1.3635,-1.3636,-1.3642,-1.3642,-1.3642,-1.3642,0,-1.3366,-1.3374,-1.3394,-1.3417,-1.3433,-1.3451,-1.347,-1.3479,-1.3499,-1.3514,-1.3535,-1.3549,-1.3577,-1.3598,-1.362,-1.3633,-1.364,-1.3643,-1.3645,-1.3642,-1.3635,-1.3638,-1.3624,-1.3642,-1.3642,-1.3642,-1.3642,-1.3642,-1.3374,-1.3387,-1.3409,-1.3431,-1.3446,-1.3463,-1.3477,-1.3492,-1.3511,-1.3535,-1.3543,-1.3565,-1.3585,-1.3615,-1.3628,-1.3645,-1.3646,-1.365,-1.3651,-1.3652,-1.3651,-1.3632,-1.3649,-1.3649,-1.3649,-1.3649,-1.3649,0,-1.3389,-1.3404,-1.3423,-1.3448,-1.3464,-1.347,-1.3491,-1.3504,-1.3523,-1.3541,-1.3558,-1.3582,-1.3602,-1.3621,-1.3641,-1.3651,-1.3655,-1.3656,-1.3655,-1.3658,-1.3649,-1.3645,-1.3652,-1.3652,-1.3652,-1.3652,-1.3652,-1.3652,-1.3399,-1.3422,-1.3432,-1.3462,-1.3476,-1.3498,-1.3509,-1.3523,-1.3538,-1.3564,-1.3581,-1.3593,-1.361,-1.3632,-1.365,-1.3655,-1.3662,-1.3662,-1.3667,-1.3659,-1.3659,-1.3658,-1.3654,-1.3663,-1.3663,-1.3675,-1.3675,-1.3675]}]]